Regional Weather Roundup
Issued by NWS Nashville, TN

Home | Current Version | Previous Version | Text Only | Print | Product List | Glossary On
Versions: 1 2 3 4 5 6 7 8 9 10 11 12 13 14 15 16 17 18 19 20 21 22 23 24 25 26 27 28
000
ASUS44 KOHX 282110
RWROHX
MIDDLE TENNESSEE HOURLY WEATHER ROUNDUP
NATIONAL WEATHER SERVICE NASHVILLE TN
400 PM CDT THU JUL 28 2016

NOTE: "FAIR" INDICATES FEW OR NO CLOUDS BELOW 12,000 FEET WITH
NO SIGNIFICANT WEATHER AND/OR OBSTRUCTIONS TO VISIBILITY.

* THESE REPORTS ARE NOT UNDER NWS QUALITY CONTROL AND MAY NOT
  REPORT WEATHER SUCH AS PRECIPITATION AND FOG.


TNZ005>011-023>034-057-059-062>066-078-080-282200
...NORTHERN MIDDLE TENNESSEE...

CITY           SKY/WX    TMP DP  RH WIND       PRES   REMARKS
CLARKSVILLE    MOSUNNY   86  73  65 W6        29.89F HX  93
CROSSVILLE     LGT RAIN  75  72  90 W8        29.96F
NASHVILLE      CLOUDY    85  72  65 NW5       29.90F HX  91
SMYRNA         MOSUNNY   83  73  71 N7        29.91F
SPARTA         CLOUDY    75  73  94 N3        29.92S
$$
TNZ056-058-060-061-075>077-079-093>097-282200
...SOUTHERN MIDDLE TENNESSEE...

CITY           SKY/WX    TMP DP  RH WIND       PRES   REMARKS
COLUMBIA       MOSUNNY  N/A N/A N/A W6        29.90F
FAYETTEVILLE   PTSUNNY   75  73  94 SW7       29.96S
MCMINNVILLE    PTSUNNY   79  79 100 W8        29.93S
SHELBYVILLE    SUNNY     82  75  78 VRB6      29.93F
TULLAHOMA      PTSUNNY   73  72  94 SW3       29.96S
WINCHESTER     MOSUNNY   77  75  94 SW5       29.95F
$$


...KEY TO REMARKS...
VSB - VISIBILITY IN MILES
WCI - WIND CHILL INDEX
HX  - HEAT INDEX





USA.gov is the U.S. government's official web portal to all federal, state and local government web resources and services.